Eagle River, WI

10:50 PM CST on February 23, 2017 (GMT -0600)
Eagle River Union

Weather History for KEGV - January, 2014

Change the Weather History Date:

Friday, January 24, 2014

  Actual Average Record
Temperature  
Mean Temperature 6 °F -  
Max Temperature 22 °F 21 °F 34 °F (2015)
Min Temperature -10 °F 2 °F -18 °F (2004)
Degree Days  
Heating Degree Days 59    
Moisture  
Dew Point 3 °F    
Average Humidity 77    
Maximum Humidity 87    
Minimum Humidity 58    
Precipitation  
Precipitation 0.00 in - - ()
Sea Level Pressure  
Sea Level Pressure 29.51 in    
Wind  
Wind Speed 11 mph (WSW)    
Max Wind Speed 20 mph    
Max Gust Speed 31 mph    
Visibility 5 miles    
Events Snow    
Averages and records for this station are not official NWS values.
T = Trace of Precipitation, MM = Missing Value Source: NWS Daily Summary

Daily Weather History Graph

Daily Weather History Graph

Search for Another Location

Airport or City:

Trip Planner

Search our weather history database for the weather conditions in past years. The results will help you decide how hot, cold, wet, or windy it might be!

Date:

Astronomy

Jan. 24, 2014 Rise Set
Actual Time 7:27 AM CST 4:51 PM CST
Civil Twilight 6:55 AM CST 5:23 PM CST
Nautical Twilight 6:18 AM CST 6:00 PM CST
Astronomical Twilight 5:43 AM CST 6:35 PM CST
Moon 12:50 AM CST 11:13 AM CST
Length of Visible Light 10h 28m
Length of Day
9h 23m
Last Quarter, 44% of the Moon is Illuminated
Jan 24
Last Quarter
Jan 30
New
Feb 6
First Quarter
Feb 14
Full
Feb 22
Last Quarter

Hourly Weather History & Observations

Time (CST) Temp. Windchill Dew Point Humidity Pressure Visibility Wind Dir Wind Speed Gust Speed Precip Events Conditions
12:15 AM -10.7 °F -27.2 °F -17.9 °F 71% 30.05 in 10.0 mi SW 8.1 mph - N/A   Scattered Clouds
12:35 AM -10.5 °F -29.2 °F -17.5 °F 71% 30.03 in 10.0 mi SW 10.4 mph - N/A   Scattered Clouds
12:55 AM -10.3 °F -26.7 °F -17.3 °F 71% 30.02 in 10.0 mi SW 8.1 mph 17.3 mph N/A   Clear
1:15 AM -10.3 °F -29.0 °F -17.5 °F 71% 30.00 in 10.0 mi SW 10.4 mph - N/A   Clear
1:35 AM -9.4 °F -28.9 °F -16.6 °F 71% 29.98 in 10.0 mi SW 11.5 mph 19.6 mph N/A   Scattered Clouds
1:55 AM -8.1 °F -25.3 °F -15.0 °F 72% 29.97 in 10.0 mi SW 9.2 mph - N/A   Overcast
2:15 AM -7.6 °F -27.5 °F -14.8 °F 71% 29.94 in 10.0 mi SW 12.7 mph 17.3 mph N/A   Overcast
2:35 AM -7.2 °F -24.2 °F -14.8 °F 70% 29.91 in 10.0 mi SSW 9.2 mph 17.3 mph N/A   Overcast
2:55 AM -6.3 °F -23.1 °F -14.8 °F 67% 29.89 in 10.0 mi SW 9.2 mph 18.4 mph N/A   Overcast
3:15 AM -5.4 °F -20.8 °F -14.8 °F 64% 29.85 in 10.0 mi SW 8.1 mph 17.3 mph N/A   Overcast
3:35 AM -3.6 °F -21.7 °F -14.3 °F 60% 29.82 in 10.0 mi SW 11.5 mph 19.6 mph N/A   Overcast
3:55 AM -2.0 °F -17.7 °F -13.2 °F 59% 29.80 in 10.0 mi SW 9.2 mph 21.9 mph N/A   Overcast
4:15 AM -1.5 °F -19.8 °F -13.0 °F 58% 29.78 in 10.0 mi SW 12.7 mph 20.7 mph N/A   Overcast
4:35 AM -1.7 °F -21.5 °F -12.6 °F 60% 29.75 in 10.0 mi SW 15.0 mph 20.7 mph N/A   Overcast
4:55 AM -1.3 °F -20.3 °F -11.9 °F 61% 29.74 in 10.0 mi SW 13.8 mph 19.6 mph N/A   Overcast
5:15 AM -0.8 °F -21.0 °F -11.2 °F 61% 29.72 in 10.0 mi SW 16.1 mph 21.9 mph N/A   Overcast
5:35 AM -0.6 °F -17.8 °F -10.7 °F 62% 29.70 in 10.0 mi SW 11.5 mph 18.4 mph N/A   Overcast
5:55 AM -0.4 °F -16.7 °F -10.3 °F 63% 29.69 in 10.0 mi SW 10.4 mph 16.1 mph N/A   Overcast
6:15 AM 0.1 °F -15.1 °F -9.8 °F 63% 29.69 in 10.0 mi SW 9.2 mph 16.1 mph N/A   Overcast
6:35 AM 0.1 °F -15.1 °F -8.1 °F 68% 29.67 in 2.0 mi SW 9.2 mph 17.3 mph N/A Snow Light Snow
6:55 AM 0.1 °F -12.8 °F -6.2 °F 75% 29.66 in 1.5 mi SSW 6.9 mph - N/A Snow Light Snow
7:15 AM 0.7 °F -14.4 °F -5.6 °F 75% 29.64 in 3.0 mi SW 9.2 mph - N/A Snow Light Snow
7:35 AM 1.8 °F -14.0 °F -4.4 °F 76% 29.63 in 5.0 mi SW 10.4 mph 16.1 mph N/A Snow Light Snow
7:55 AM 3.0 °F -12.5 °F -3.1 °F 76% 29.62 in 3.0 mi SW 10.4 mph - N/A Snow Light Snow
8:15 AM 3.7 °F -12.4 °F -2.4 °F 76% 29.61 in 4.0 mi SW 11.5 mph 16.1 mph N/A Snow Light Snow
8:35 AM 4.1 °F -12.0 °F -2.2 °F 75% 29.59 in 5.0 mi SW 11.5 mph - N/A Snow Light Snow
8:55 AM 4.5 °F -10.7 °F -1.5 °F 76% 29.58 in 2.5 mi SW 10.4 mph 17.3 mph N/A Snow Light Snow
9:15 AM 5.0 °F -10.8 °F -0.9 °F 76% 29.56 in 3.0 mi SW 11.5 mph - N/A Snow Light Snow
9:35 AM 5.9 °F -9.7 °F -0.4 °F 75% 29.54 in 3.0 mi SW 11.5 mph - N/A Snow Light Snow
9:55 AM 6.4 °F -8.2 °F 0.5 °F 77% 29.54 in 3.0 mi SW 10.4 mph - N/A Snow Light Snow
10:15 AM 7.3 °F -7.1 °F 1.4 °F 77% 29.53 in 3.0 mi SW 10.4 mph - N/A Snow Light Snow
10:35 AM 8.1 °F -7.7 °F 2.1 °F 77% 29.53 in 3.0 mi WSW 12.7 mph 18.4 mph N/A Snow Light Snow
10:55 AM 8.6 °F -5.5 °F 3.0 °F 78% 29.51 in 2.5 mi SW 10.4 mph - N/A Snow Light Snow
11:15 AM 9.3 °F -2.8 °F 3.6 °F 77% 29.49 in 2.0 mi WSW 8.1 mph - N/A Snow Light Snow
11:35 AM 9.9 °F -4.0 °F 4.1 °F 78% 29.47 in 2.0 mi SW 10.4 mph - N/A Snow Light Snow
11:55 AM 10.4 °F -2.4 °F 5.0 °F 79% 29.45 in 2.5 mi SW 9.2 mph - N/A Snow Light Snow
12:15 PM 11.1 °F -1.6 °F 6.4 °F 81% 29.44 in 1.2 mi SW 9.2 mph - N/A Snow Light Snow
12:35 PM 12.2 °F -1.0 °F 7.7 °F 82% 29.42 in 0.8 mi SW 10.4 mph 17.3 mph N/A Snow Light Snow
12:55 PM 13.1 °F -2.0 °F 8.6 °F 82% 29.41 in 1.2 mi WSW 13.8 mph 18.4 mph N/A Snow Light Snow
1:15 PM 13.8 °F -1.1 °F 9.3 °F 82% 29.40 in 1.8 mi WSW 13.8 mph 19.6 mph N/A Snow Light Snow
1:35 PM 14.0 °F -1.4 °F 9.7 °F 83% 29.39 in 1.5 mi WSW 15.0 mph - N/A Snow Light Snow
1:55 PM 14.5 °F 0.5 °F 10.4 °F 84% 29.38 in 1.8 mi WSW 12.7 mph 20.7 mph N/A Snow Light Snow
2:15 PM 14.7 °F 0.7 °F 11.1 °F 86% 29.37 in 1.5 mi WSW 12.7 mph - N/A Snow Light Snow
2:35 PM 15.1 °F -0.1 °F 11.8 °F 87% 29.36 in 1.5 mi WSW 15.0 mph - N/A Snow Light Snow
2:55 PM 15.6 °F 1.8 °F 11.7 °F 84% 29.34 in 0.8 mi WSW 12.7 mph - N/A Snow Light Snow
3:15 PM 16.2 °F 1.9 °F 12.0 °F 84% 29.33 in 1.2 mi WSW 13.8 mph - N/A Snow Light Snow
3:35 PM 16.3 °F 2.1 °F 12.2 °F 84% 29.32 in 1.2 mi WSW 13.8 mph - N/A Snow Light Snow
3:55 PM 16.5 °F 1.8 °F 12.2 °F 83% 29.32 in 1.5 mi WSW 15.0 mph - N/A Snow Light Snow
4:15 PM 16.5 °F 3.0 °F 12.4 °F 84% 29.32 in 1.2 mi WSW 12.7 mph - N/A Snow Light Snow
4:35 PM 16.7 °F 3.8 °F 12.9 °F 85% 29.32 in 1.2 mi WSW 11.5 mph - N/A Snow Light Snow
4:55 PM 17.1 °F 4.3 °F 13.1 °F 84% 29.31 in 1.2 mi WSW 11.5 mph - N/A Snow Light Snow
5:15 PM 17.2 °F 6.0 °F 13.3 °F 84% 29.30 in 1.2 mi WSW 9.2 mph - N/A Snow Light Snow
5:35 PM 16.9 °F 6.4 °F 13.1 °F 85% 29.30 in 4.0 mi WSW 8.1 mph - N/A Snow Light Snow
5:55 PM 17.4 °F 5.4 °F 13.6 °F 85% 29.29 in 7.0 mi WSW 10.4 mph - N/A Snow Light Snow
6:15 PM 18.0 °F 6.1 °F 14.0 °F 84% 29.29 in 2.5 mi WSW 10.4 mph - N/A Snow Light Snow
6:35 PM 18.3 °F 7.3 °F 14.5 °F 85% 29.28 in 2.0 mi WSW 9.2 mph - N/A Snow Light Snow
6:55 PM 18.1 °F 5.6 °F 14.5 °F 86% 29.27 in 5.0 mi WSW 11.5 mph - N/A Snow Light Snow
7:15 PM 18.7 °F 7.0 °F 14.9 °F 85% 29.26 in 7.0 mi West 10.4 mph - N/A Snow Light Snow
7:35 PM 19.0 °F 9.0 °F 15.4 °F 86% 29.26 in 3.0 mi West 8.1 mph - N/A Snow Light Snow
7:55 PM 19.4 °F 8.6 °F 15.8 °F 86% 29.25 in 5.0 mi West 9.2 mph - N/A Snow Light Snow
8:15 PM 19.9 °F 9.3 °F 16.5 °F 87% 29.23 in 3.0 mi West 9.2 mph - N/A Snow Light Snow
8:35 PM 20.5 °F 11.7 °F 17.1 °F 87% 29.23 in 4.0 mi West 6.9 mph - N/A Snow Light Snow
8:55 PM 21.4 °F 11.1 °F 17.6 °F 85% 29.22 in 7.0 mi West 9.2 mph - N/A Snow Light Snow
9:15 PM 21.6 °F 10.6 °F 17.8 °F 85% 29.22 in 4.0 mi West 10.4 mph - N/A Snow Light Snow
9:35 PM 21.7 °F 10.8 °F 18.0 °F 85% 29.22 in 10.0 mi West 10.4 mph - N/A   Overcast
9:55 PM 22.1 °F 12.0 °F 18.1 °F 85% 29.21 in 7.0 mi West 9.2 mph - N/A Snow Light Snow
10:15 PM 22.5 °F 11.7 °F 17.6 °F 82% 29.20 in 10.0 mi West 10.4 mph 16.1 mph N/A   Mostly Cloudy
10:35 PM 22.5 °F 10.5 °F 18.7 °F 85% 29.22 in 0.8 mi NW 12.7 mph 21.9 mph N/A Snow Snow
10:55 PM 21.9 °F 7.8 °F 17.4 °F 83% 29.22 in 1.5 mi NW 17.3 mph 27.6 mph N/A Snow Light Snow
11:15 PM 21.0 °F 8.6 °F 16.2 °F 81% 29.23 in 1.8 mi NW 12.7 mph 31.1 mph N/A Snow Light Snow
11:35 PM 19.9 °F 4.3 °F 14.5 °F 80% 29.24 in 1.8 mi WNW 19.6 mph 29.9 mph N/A Snow Light Snow
11:55 PM 19.4 °F 3.6 °F 14.0 °F 80% 29.25 in 1.2 mi NW 19.6 mph 29.9 mph N/A Snow Light Snow